Location: Gajan
(43.0218°N, 1.1244°E)
Time: 06:49:07
(UTC+00:00)

Meteor 2-8 Rocket - Pass Details

Date: 22 April 2021
Orbit: 936 x 959 km, 82.5° (Epoch: 07 May)

Event Time Altitude Azimuth Distance (km) Brightness Sun altitude
Exits shadow 21:02:56 35° 174° (S) 1,505 5.1 -22.1°
Maximum altitude 21:05:43 76° 96° (E) 983 4.3 -22.5°
Drops below altitude 10° 21:11:50 10° 11° (NNE) 2,680 7.2 -23.3°
Sets 21:14:20 0° 10° (N) 3,626 8.0 -23.6°
